Wind_Speed
16 17 18 20 19 20 20 21 20 20 20 18 17 15 15 11 6 3 2 1 1 6 8 6 5 2 1 3 5 3 4 2 4 2 6 5 8 8 4 3 3 9 10 7 11
17 18 19 20 20 20 20 20 20 20 20 17 16 14 14 9 3 4 3 2 2 9 10 5 2 2 4 4 3 4 3 6 4 4 5 13 4 15 12 6 2 8 15 12 14
16 18 19 21 21 21 21 20 20 20 18 16 14 12 11 7 2 5 3 2 6 10 6 4 3 2 4 1 4 3 3 4 7 10 7 6 7 12 9 5 9 18 13 8 15
16 19 20 22 22 21 21 20 20 19 17 15 12 10 9 2 2 3 4 4 9 8 6 5 6 2 3 3 1 2 10 6 6 4 5 4 5 9 23 14 20 12 6 13 14
17 18 20 21 22 22 21 20 19 17 15 13 10 8 5 1 3 4 2 9 10 7 6 6 10 3 1 2 4 4 4 4 7 11 16 24 17 13 28 28 19 22 22 23 14
16 19 21 22 22 21 21 19 18 16 14 12 7 6 2 1 2 2 7 6 6 5 6 7 5 6 2 4 4 7 5 6 2 14 14 17 16 8 25 22 28 33 33 29 22
17 20 22 23 22 21 19 19 19 15 11 7 4 5 3 1 2 1 4 2 5 6 6 6 7 6 9 5 4 4 4 4 10 4 5 10 14 13 25 23 32 33 32 29 25
18 20 21 22 22 20 17 20 13 9 6 3 2 2 3 2 1 5 3 2 3 6 6 6 4 9 3 7 9 7 6 4 5 9 8 8 3 10 20 22 26 26 33 32 31
19 20 21 21 20 17 18 15 6 5 4 2 2 3 1 2 2 3 4 3 3 4 3 8 10 3 3 3 5 7 2 3 3 15 3 7 3 11 17 17 19 26 30 29 28
20 19 21 20 19 16 19 5 3 2 7 1 2 3 1 1 2 3 2 2 2 3 1 1 2 3 4 5 1 2 3 5 5 7 17 13 7 6 12 16 18 23 27 31 32
20 20 21 20 15 13 20 4 3 3 8 4 2 5 8 5 2 1 2 1 2 0 1 2 5 2 5 5 3 3 5 9 2 3 10 4 6 7 8 12 14 17 28 32 30
19 20 21 18 9 7 14 11 14 8 10 8 8 12 11 7 2 2 3 3 1 2 4 5 1 5 3 4 3 3 7 4 6 3 7 4 8 5 9 5 7 9 20 33 27
19 20 21 16 4 4 7 14 11 10 5 7 5 7 4 3 2 0 5 2 2 2 2 3 4 3 1 3 3 3 5 5 7 3 5 1 5 7 5 11 6 3 8 28 28
18 20 20 17 5 10 6 8 12 5 4 4 3 3 7 4 2 2 4 0 3 2 4 2 4 2 2 2 4 2 5 5 14 5 4 2 2 6 5 7 9 15 12 26 24
17 19 18 19 14 10 5 10 6 1 2 2 3 3 7 4 1 2 3 0 1 2 4 2 2 1 2 2 2 3 5 6 4 4 5 5 5 5 5 4 6 15 16 16 15
18 18 21 18 14 7 9 8 0 4 1 1 5 4 4 1 3 1 1 1 2 3 2 4 5 2 1 3 3 4 5 7 5 3 4 3 4 4 3 3 3 5 3 5 10
18 17 19 17 12 9 9 2 4 2 4 2 3 4 2 2 1 1 3 5 3 3 5 6 4 6 4 6 6 8 7 4 5 5 3 4 4 5 3 0 4 7 4 1 2
19 18 16 11 7 6 5 4 2 3 4 3 3 4 4 5 3 3 3 5 5 4 3 3 6 7 9 2 5 4 5 5 2 1 2 5 2 2 3 9 7 8 6 2 2
19 16 10 3 3 4 2 2 5 3 3 3 3 5 2 1 5 5 4 2 3 3 4 3 3 4 5 4 2 2 5 4 6 3 3 2 1 3 4 4 6 7 4 2 3
17 14 5 2 3 4 2 4 4 4 5 1 3 3 4 2 4 4 4 2 3 6 2 2 2 2 5 3 8 5 4 4 4 2 1 3 1 3 5 3 4 5 4 4 5
14 6 2 2 4 2 2 5 5 11 5 1 3 3 2 4 4 3 3 3 5 5 10 2 3 4 3 5 3 6 4 6 5 3 4 2 3 4 3 2 4 8 10 10 9
7 3 2 1 3 1 1 3 6 7 3 2 3 3 3 4 5 3 3 3 11 2 3 2 4 2 1 1 2 2 2 4 5 3 2 3 3 5 5 11 12 10 8 7 8
5 5 1 3 1 2 5 5 5 4 4 5 3 3 2 4 6 3 3 3 10 4 3 2 4 3 6 6 6 6 5 4 4 3 2 4 3 5 11 11 8 7 7 8 10
3 2 2 5 2 2 2 4 5 4 2 3 3 5 5 7 6 5 3 5 6 5 7 4 4 4 5 2 2 4 7 4 3 3 4 2 4 2 3 2 5 8 11 15 17
2 2 1 2 3 3 2 3 4 6 6 9 4 5 6 5 5 4 3 2 6 5 5 4 4 2 4 6 7 5 7 10 5 1 3 5 3 1 3 2 5 12 15 15 18
2 1 2 4 5 2 3 2 2 4 4 4 5 3 5 6 6 7 5 2 1 6 4 4 1 2 6 7 8 8 7 7 6 6 5 5 1 3 6 6 9 13 15 17 19
7 4 3 2 2 2 2 4 2 2 8 5 5 8 9 4 15 13 11 11 6 4 3 4 4 3 0 3 2 6 5 3 3 3 3 2 4 3 4 10 13 12 13 17 15
Wind_Direction
336 334 335 333 332 332 331 329 328 328 329 333 332 334 333 336 334 342 9 62 110 111 118 106 90 17 332 157 188 168 61 281 257 191 273 337 1 326 295 171 177 229 284 280 186
338 336 334 332 332 332 329 327 325 326 328 334 328 336 335 344 20 38 14 238 140 121 123 116 113 324 149 142 174 109 116 226 217 222 281 315 19 337 346 359 167 257 256 262 190
340 336 334 332 333 331 328 324 323 324 326 335 326 338 337 347 77 35 26 137 136 128 109 51 24 57 95 142 182 171 199 212 283 288 312 307 73 45 5 9 324 291 293 119 138
341 335 336 334 333 330 324 323 321 321 324 330 325 340 338 34 122 355 23 116 130 113 65 30 31 84 77 7 31 342 255 227 318 4 6 4 60 65 34 336 321 298 186 137 131
339 336 336 332 330 329 323 323 317 314 319 322 324 338 351 351 77 359 86 108 101 82 49 43 42 56 116 248 324 171 263 98 307 94 79 86 57 62 28 18 70 97 93 85 90
338 336 336 336 333 325 326 321 312 313 311 309 317 323 321 287 129 41 130 110 92 62 42 37 15 355 228 219 170 206 287 329 144 96 81 81 36 49 6 31 61 87 79 75 75
340 340 334 339 331 328 328 318 316 317 310 300 311 306 238 218 173 139 135 65 41 14 359 358 348 336 319 307 310 297 41 38 23 309 136 71 35 24 17 47 56 68 79 74 68
341 340 338 337 330 331 327 319 328 343 330 312 317 296 249 243 288 165 152 110 10 347 330 329 334 312 273 316 346 16 75 67 3 360 21 97 20 14 48 47 53 54 63 63 65
338 339 339 340 332 333 326 326 334 357 349 328 326 300 226 286 162 177 164 152 360 39 329 274 285 304 359 54 15 7 38 24 45 5 76 68 123 7 48 66 68 64 60 68 61
335 338 340 342 338 336 334 323 333 322 351 15 284 310 139 77 355 284 245 249 290 328 334 47 106 52 30 64 234 353 57 60 59 342 70 62 58 14 58 72 76 76 69 67 61
334 338 342 346 340 347 353 287 334 347 302 245 240 271 284 346 320 59 174 196 251 241 80 50 76 234 224 197 209 101 90 111 131 143 65 52 66 28 65 66 74 83 83 73 67
334 336 340 350 342 1 17 62 36 324 310 300 253 261 268 302 325 83 156 201 79 10 329 27 2 235 214 162 117 118 113 87 53 20 90 149 49 339 27 20 99 92 100 90 78
334 336 340 355 334 354 13 36 358 331 269 299 247 247 266 227 249 340 188 184 111 60 17 130 254 323 124 78 127 119 124 190 131 109 26 165 35 6 340 10 57 172 70 83 73
332 333 339 353 327 346 327 333 337 313 39 269 240 247 192 193 293 216 198 316 31 39 136 222 295 28 0 93 122 89 174 167 142 118 172 53 236 343 351 328 1 20 73 61 61
329 330 333 336 332 335 313 322 338 239 56 167 166 162 168 160 311 57 145 230 165 351 60 281 330 325 33 354 194 186 89 131 122 92 107 17 77 276 352 341 344 7 36 44 43
325 329 323 330 332 330 320 332 126 40 268 147 134 135 102 72 8 90 141 101 47 67 15 260 296 273 285 87 49 122 88 55 56 81 46 312 116 282 256 284 338 323 357 20 43
317 323 315 317 307 312 328 7 44 134 348 186 150 120 102 148 328 65 59 34 67 56 4 341 339 319 37 45 8 60 53 3 19 21 198 317 56 247 323 147 244 225 239 338 44
315 319 314 310 313 305 326 50 199 264 243 307 131 103 158 171 31 46 55 33 13 57 68 60 358 2 334 94 171 59 125 139 182 191 240 357 65 266 271 304 233 204 198 196 286
317 323 324 331 351 342 11 95 219 222 300 340 98 102 238 115 107 76 52 47 17 5 113 116 15 338 51 358 68 156 55 160 105 25 80 279 338 340 349 39 141 154 144 129 34
324 333 12 49 345 335 88 236 257 231 325 19 126 116 167 111 86 80 16 22 333 42 178 168 113 9 299 38 29 105 146 52 16 85 351 328 115 252 339 11 37 72 115 58 37
325 335 22 33 345 311 180 239 284 290 269 221 131 114 130 118 83 69 346 360 8 351 65 61 78 297 35 30 333 4 25 50 107 110 157 186 260 359 321 41 66 72 87 64 35
315 339 310 293 8 21 232 219 305 286 336 328 104 92 117 105 71 84 105 319 342 321 55 353 128 80 127 360 266 38 109 111 111 223 69 133 256 350 76 88 85 68 49 24 3
300 280 263 218 194 303 292 279 260 301 331 348 65 72 80 110 101 90 107 12 30 55 96 183 22 45 354 355 9 43 348 81 95 95 167 138 239 42 64 60 54 35 5 348 341
297 342 216 195 203 172 316 290 296 309 294 23 49 90 83 46 20 136 110 29 27 73 86 90 81 135 169 207 203 20 350 357 96 95 165 195 140 13 32 31 9 7 358 354 353
249 269 318 290 295 242 320 287 307 359 346 29 26 45 121 92 56 89 81 64 29 29 47 86 81 60 42 83 82 93 49 36 70 30 97 165 108 305 239 264 9 2 354 352 352
234 292 318 286 301 215 179 263 311 327 7 342 100 16 89 135 168 166 130 137 153 27 58 24 123 7 46 63 74 71 39 57 53 55 67 83 32 244 261 287 312 344 345 343 343
218 257 281 287 335 148 214 263 275 304 24 70 115 91 52 356 115 106 98 94 89 102 93 72 118 82 93 318 269 32 357 43 75 36 158 263 238 316 312 309 313 317 334 339 342
Height
1537 1534 1532 1529 1527 1524 1521 1518 1517 1514 1511 1507 1506 1503 1500 1498 1497 1496 1497 1499 1499 1499 1500 1501 1502 1502 1503 1503 1504 1504 1517 1524 1511 1507 1499 1491 1491 1484 1482 1484 1485 1484 1482 1482 1483
1535 1533 1531 1528 1525 1522 1519 1517 1516 1512 1509 1506 1504 1501 1499 1497 1496 1496 1498 1497 1498 1499 1501 1502 1501 1501 1501 1502 1504 1505 1519 1511 1501 1498 1495 1492 1496 1491 1488 1488 1487 1484 1482 1481 1485
1534 1533 1531 1527 1523 1521 1517 1516 1514 1510 1507 1504 1503 1501 1499 1497 1497 1497 1497 1497 1498 1500 1501 1501 1500 1500 1500 1502 1504 1505 1510 1501 1494 1495 1495 1493 1495 1494 1492 1490 1489 1487 1487 1491 1494
1533 1530 1527 1525 1521 1519 1516 1514 1511 1508 1505 1503 1502 1500 1498 1498 1503 1497 1497 1497 1498 1499 1501 1500 1499 1499 1500 1502 1502 1506 1498 1498 1496 1493 1493 1493 1495 1497 1500 1502 1488 1483 1487 1491 1494
1531 1530 1528 1525 1522 1517 1515 1512 1509 1506 1503 1502 1501 1500 1498 1498 1497 1497 1498 1498 1499 1500 1500 1500 1499 1499 1501 1501 1502 1503 1498 1500 1497 1498 1494 1495 1502 1505 1503 1500 1490 1487 1494 1497 1500
1531 1530 1526 1521 1518 1515 1511 1509 1506 1503 1501 1500 1499 1499 1499 1499 1497 1497 1498 1499 1499 1500 1500 1500 1500 1500 1499 1499 1501 1498 1498 1499 1496 1498 1499 1497 1505 1504 1510 1505 1499 1490 1499 1502 1504
1529 1526 1522 1518 1516 1513 1510 1507 1503 1500 1498 1498 1498 1498 1498 1498 1497 1497 1497 1499 1499 1499 1500 1500 1500 1501 1498 1495 1496 1495 1498 1497 1502 1500 1499 1497 1511 1517 1516 1510 1504 1500 1501 1504 1507
1528 1525 1522 1517 1515 1511 1508 1504 1501 1498 1497 1497 1497 1498 1496 1496 1496 1497 1498 1498 1498 1498 1499 1499 1500 1500 1499 1496 1492 1494 1502 1513 1504 1502 1501 1500 1531 1523 1521 1516 1512 1512 1509 1512 1510
1528 1525 1522 1517 1514 1511 1507 1501 1499 1498 1497 1496 1497 1498 1496 1495 1496 1497 1497 1498 1498 1498 1498 1499 1499 1500 1499 1503 1511 1510 1518 1512 1508 1504 1501 1504 1527 1527 1524 1521 1520 1516 1515 1515 1518
1528 1524 1521 1517 1512 1509 1505 1500 1499 1497 1497 1496 1497 1500 1496 1496 1495 1496 1497 1497 1497 1496 1497 1498 1499 1503 1507 1511 1529 1515 1515 1517 1519 1517 1510 1521 1530 1528 1527 1525 1525 1520 1520 1519 1519
1526 1522 1519 1515 1512 1509 1503 1501 1501 1499 1497 1496 1497 1496 1494 1495 1494 1495 1496 1497 1496 1496 1499 1498 1506 1511 1503 1503 1501 1505 1512 1520 1519 1516 1522 1532 1531 1531 1532 1530 1527 1524 1520 1517 1521
1525 1522 1519 1514 1512 1511 1507 1502 1507 1512 1502 1494 1493 1493 1493 1494 1494 1493 1495 1498 1496 1500 1497 1502 1508 1497 1497 1498 1501 1506 1515 1520 1523 1517 1523 1532 1534 1530 1530 1531 1531 1529 1520 1513 1519
1524 1520 1517 1514 1513 1512 1508 1506 1510 1509 1507 1492 1492 1492 1493 1494 1493 1493 1495 1495 1495 1498 1499 1504 1498 1493 1494 1497 1502 1506 1512 1515 1522 1522 1524 1526 1536 1538 1533 1531 1530 1531 1533 1515 1516
1523 1520 1517 1512 1514 1509 1509 1511 1509 1509 1514 1496 1491 1490 1491 1493 1493 1492 1493 1496 1495 1498 1499 1500 1494 1494 1497 1498 1500 1508 1501 1504 1519 1526 1545 1528 1560 1542 1538 1535 1530 1529 1530 1515 1518
1523 1519 1518 1514 1512 1510 1512 1510 1507 1509 1526 1491 1490 1490 1491 1494 1494 1493 1493 1494 1496 1497 1499 1502 1496 1497 1499 1498 1496 1503 1500 1508 1515 1526 1533 1541 1554 1548 1540 1538 1533 1527 1523 1523 1524
1521 1518 1515 1513 1510 1510 1509 1507 1508 1518 1519 1492 1488 1489 1493 1493 1493 1493 1493 1493 1495 1496 1499 1499 1495 1494 1494 1495 1495 1497 1503 1516 1526 1533 1554 1546 1551 1554 1547 1539 1536 1532 1530 1529 1528
1520 1519 1515 1512 1512 1509 1507 1507 1519 1523 1492 1494 1491 1490 1494 1496 1495 1494 1495 1500 1507 1512 1515 1505 1500 1494 1493 1499 1496 1501 1519 1550 1548 1560 1560 1543 1551 1552 1540 1538 1536 1534 1532 1533 1535
1517 1515 1513 1510 1507 1508 1508 1510 1520 1499 1496 1486 1488 1492 1499 1495 1497 1497 1500 1511 1503 1507 1520 1524 1527 1504 1497 1500 1507 1512 1520 1547 1548 1563 1558 1545 1557 1552 1539 1535 1534 1536 1537 1538 1539
1515 1511 1508 1507 1507 1507 1509 1520 1512 1497 1490 1490 1489 1497 1500 1494 1497 1502 1509 1513 1509 1507 1517 1521 1518 1503 1501 1500 1503 1510 1528 1521 1547 1554 1558 1563 1548 1542 1538 1538 1537 1539 1541 1541 1541
1515 1511 1509 1508 1508 1509 1513 1514 1503 1493 1489 1488 1494 1495 1504 1499 1502 1507 1512 1509 1509 1507 1505 1513 1523 1507 1504 1501 1503 1506 1515 1532 1545 1557 1557 1563 1559 1560 1547 1543 1543 1543 1543 1543 1542
1514 1510 1510 1509 1508 1509 1515 1511 1500 1489 1488 1488 1490 1496 1499 1501 1504 1512 1517 1509 1508 1508 1506 1512 1519 1516 1510 1518 1523 1522 1525 1537 1544 1554 1565 1571 1565 1551 1550 1546 1547 1546 1546 1546 1546
1514 1513 1510 1509 1511 1513 1512 1506 1498 1491 1486 1485 1486 1490 1496 1499 1509 1513 1516 1515 1509 1509 1514 1516 1527 1533 1522 1516 1517 1518 1523 1533 1551 1549 1564 1564 1567 1552 1552 1551 1550 1550 1549 1548 1547
1514 1512 1510 1510 1516 1514 1508 1503 1498 1492 1488 1486 1488 1488 1492 1500 1514 1513 1514 1513 1510 1510 1514 1516 1539 1549 1536 1528 1522 1531 1530 1535 1541 1549 1557 1562 1565 1554 1552 1552 1551 1551 1549 1548 1546
1515 1514 1510 1510 1510 1511 1509 1504 1499 1490 1489 1488 1489 1489 1494 1505 1505 1513 1516 1514 1513 1513 1514 1516 1540 1545 1555 1541 1538 1541 1540 1535 1538 1551 1558 1558 1558 1557 1555 1554 1552 1550 1549 1546 1543
1514 1512 1512 1511 1509 1509 1508 1505 1501 1497 1490 1490 1491 1492 1495 1509 1511 1516 1515 1515 1515 1515 1517 1521 1541 1538 1540 1538 1540 1546 1546 1543 1545 1548 1551 1555 1556 1555 1553 1551 1550 1548 1546 1544 1542
1513 1513 1512 1509 1507 1508 1507 1503 1500 1497 1496 1493 1495 1496 1495 1504 1505 1516 1516 1517 1518 1518 1522 1527 1546 1539 1547 1543 1542 1549 1549 1549 1551 1554 1557 1558 1557 1552 1551 1550 1549 1547 1545 1543 1541
1513 1513 1514 1510 1508 1508 1506 1502 1498 1497 1497 1496 1497 1497 1503 1505 1504 1509 1511 1515 1517 1520 1528 1533 1544 1551 1550 1548 1545 1558 1556 1555 1556 1556 1556 1558 1556 1552 1551 1550 1548 1546 1546 1543 1540